STARLINK-1659 (46534 NORAD) Tracking and Keplerian Element Data

This shows tracking and keplerian element data for the satellite.

Feedback or suggestion? Click here.




ElementValue
Catalog46534
NameSTARLINK-1659
Epoch Orbit174
Epoch Day335.91670139
Epoch Year2020
RAAN177.2511
Inclination53.0015
Eccentricity0.0001559
Argument of Perigee65.8492
Mean Anonmoly270.4152
Mean Motion15.05582694
Decay Rate0.00010193
L11 46534U 20070C 20335.91670139 .00010193 00000-0 71765-3 0 9993
L22 46534 53.0015 177.2511 0001559 65.8492 270.4152 15.05582694 1744

Live tracking and technical data element details for STARLINK-1659 (NORAD 46534). STARLINK-1659 can be tracked NOW for your location showing map with azimuth and elevation plus other details from your city location.

Track the satellite on the map from your city or location and see movement details for azimuth, elevation, latitude, longitude, range, height, and movement on the map or in text.







IsCatalogInMostPopularTable: catalog: 46534, numindb: 15
Update: records affected: 1



GetName: 46534 STARLINK-1659

Hit Count: updated at: Wed, 02 Dec 2020 05:53:21 GMT